This is the latest recevied weather packets stored in our database for station/object IW0REF-9. If no packets are shown the sender has not sent any weather packets the latest 10 day(s).
| Time | Temp. | Humidity | Pressure | Rain* | Wind** | Luminosity | Snow |
|---|---|---|---|---|---|---|---|
| 1778007200 | 18.89° C | 41% | 998.8 hPa | - | - | - | - |
| 1778006300 | 18.89° C | 41% | 998.8 hPa | - | - | - | - |
| 1778005400 | 18.89° C | 40% | 998.6 hPa | - | - | - | - |
| 1778004500 | 18.89° C | 41% | 998.6 hPa | - | - | - | - |
| 1778003599 | 19.44° C | 41% | 998.6 hPa | - | - | - | - |
| 1778002699 | 19.44° C | 41% | 998.6 hPa | - | - | - | - |
| 1778001799 | 18.89° C | 41% | 998.6 hPa | - | - | - | - |
| 1778000899 | 19.44° C | 40% | 998.8 hPa | - | - | - | - |
| 1777999998 | 20° C | 40% | 998.8 hPa | - | - | - | - |
| 1777999098 | 20° C | 40% | 998.8 hPa | - | - | - | - |
| 1777998198 | 20.56° C | 40% | 998.9 hPa | - | - | - | - |
| 1777997298 | 20° C | 40% | 998.9 hPa | - | - | - | - |
| 1777996398 | 20° C | 40% | 999.2 hPa | - | - | - | - |
| 1777995498 | 19.44° C | 40% | 999.1 hPa | - | - | - | - |
| 1777994598 | 19.44° C | 40% | 999.2 hPa | - | - | - | - |
| 1777993698 | 18.89° C | 40% | 999.2 hPa | - | - | - | - |
| 1777992798 | 19.44° C | 40% | 998.9 hPa | - | - | - | - |
| 1777991897 | 20° C | 40% | 999 hPa | - | - | - | - |
| 1777990997 | 19.44° C | 40% | 999.2 hPa | - | - | - | - |
| 1777989197 | 20° C | 41% | 999.3 hPa | - | - | - | - |
| 1777988297 | 20° C | 41% | 999.6 hPa | - | - | - | - |
| 1777987401 | 19.44° C | 41% | 999.5 hPa | - | - | - | - |
| 1777986497 | 19.44° C | 42% | 999.4 hPa | - | - | - | - |
| 1777985597 | 18.89° C | 42% | 999.5 hPa | - | - | - | - |
| 1777984697 | 18.33° C | 42% | 999.9 hPa | - | - | - | - |
* Rain since midnight (hover to see other rain measurements)
** Current wind speed in m/s (hover to see current wind gust speed)